Change the Weather History Date:

Friday, February 24, 2012

  Actual Average Record
Temperature  
Mean Temperature 66 °F -  
Max Temperature 79 °F 63 °F 79 °F (2012)
Min Temperature 50 °F 42 °F 33 °F (2002)
Growing Degree Days 16 (Base 50)    
Moisture  
Dew Point 56 °F    
Average Humidity 70    
Maximum Humidity 90    
Minimum Humidity 41    
Precipitation  
Precipitation 0.29 in - - ()
Sea Level Pressure  
Sea Level Pressure 29.87 in    
Wind  
Wind Speed 14 mph (WSW)    
Max Wind Speed 32 mph    
Max Gust Speed 39 mph    
Visibility 10 miles    
Events Rain    
Averages and records for this station are not official NWS values.
T = Trace of Precipitation, MM = Missing Value Source: NWS Daily Summary

Daily Weather History Graph

Daily Weather History Graph

Search for Another Location

Airport or City:

Trip Planner

Search our weather history database for the weather conditions in past years. The results will help you decide how hot, cold, wet, or windy it might be!

Date:

Astronomy

Feb. 24, 2012 Rise Set
Actual Time 6:15 AM CST 5:36 PM CST
Civil Twilight 5:51 AM CST 6:01 PM CST
Nautical Twilight 5:23 AM CST 6:29 PM CST
Astronomical Twilight 4:54 AM CST 6:57 PM CST
Moon 7:24 AM CST (2/24) 8:23 PM CST (2/24)
Length of Visible Light 12h 10m
Length of Day
11h 21m
Waxing Crescent, 8% of the Moon is Illuminated
Feb 24
Waxing Crescent
Feb 29
First Quarter
Mar 8
Full
Mar 14
Last Quarter
Mar 22
New

Hourly Weather History & Observations

Time (CST) Temp. Dew Point Humidity Pressure Visibility Wind Dir Wind Speed Gust Speed Precip Events Conditions
12:11 AM 71.6 °F 66.2 °F 83% 29.77 in 10.0 mi SSW 13.8 mph 21.9 mph N/A   Light Drizzle
12:20 AM 71.6 °F 66.2 °F 83% 29.77 in 10.0 mi SSW 12.7 mph - N/A   Mostly Cloudy
12:55 AM 70.9 °F 66.6 °F 86% 29.77 in 10.0 mi SSW 17.3 mph 28.8 mph 0.00 in   Mostly Cloudy
1:14 AM 71.6 °F 66.2 °F 83% 29.77 in 10.0 mi SSW 17.3 mph 27.6 mph N/A   Mostly Cloudy
1:39 AM 69.8 °F 66.2 °F 88% 29.78 in 10.0 mi SW 12.7 mph 21.9 mph N/A   Mostly Cloudy
1:55 AM 70.5 °F 66.4 °F 87% 29.77 in 10.0 mi SSW 13.8 mph - N/A   Mostly Cloudy
2:05 AM 69.8 °F 66.2 °F 88% 29.76 in 10.0 mi SSW 13.8 mph - N/A   Overcast
2:55 AM 70.3 °F 66.7 °F 88% 29.77 in 10.0 mi SSW 9.2 mph - N/A   Overcast
3:55 AM 70.2 °F 66.6 °F 88% 29.77 in 10.0 mi SSW 9.2 mph - N/A   Mostly Cloudy
4:15 AM 69.8 °F 66.2 °F 88% 29.77 in 10.0 mi SSW 10.4 mph - N/A   Mostly Cloudy
4:22 AM 69.8 °F 66.2 °F 88% 29.78 in 10.0 mi SSW 8.1 mph - N/A   Mostly Cloudy
4:29 AM 69.8 °F 66.2 °F 88% 29.78 in 10.0 mi SSW 9.2 mph - N/A   Mostly Cloudy
4:34 AM 69.8 °F 66.2 °F 88% 29.79 in 10.0 mi SSW 8.1 mph - N/A   Mostly Cloudy
4:36 AM 69.8 °F 66.2 °F 88% 29.79 in 10.0 mi SSW 9.2 mph - N/A   Mostly Cloudy
4:42 AM 69.8 °F 66.2 °F 88% 29.79 in 10.0 mi SSW 10.4 mph - N/A   Scattered Clouds
4:55 AM 70.0 °F 66.4 °F 88% 29.80 in 10.0 mi SSW 9.2 mph - N/A   Partly Cloudy
4:59 AM 69.8 °F 66.2 °F 88% 29.81 in 10.0 mi SSW 9.2 mph - N/A   Mostly Cloudy
5:34 AM 69.8 °F 66.2 °F 88% 29.80 in 10.0 mi SSW 9.2 mph - N/A   Overcast
5:55 AM 69.8 °F 66.4 °F 89% 29.81 in 10.0 mi SSW 11.5 mph - N/A   Clear
6:10 AM 69.8 °F 66.2 °F 88% 29.81 in 10.0 mi SSW 10.4 mph - N/A   Overcast
6:37 AM 69.8 °F 66.2 °F 88% 29.81 in 10.0 mi SSW 12.7 mph - N/A   Overcast
6:55 AM 68.9 °F 66.0 °F 90% 29.81 in 10.0 mi South 12.7 mph - N/A   Clear
7:55 AM 70.5 °F 65.8 °F 85% 29.83 in 10.0 mi SSW 18.4 mph 24.2 mph N/A   Clear
8:55 AM 74.8 °F 65.5 °F 73% 29.83 in 10.0 mi SSW 21.9 mph 27.6 mph 0.01 in   Clear
9:55 AM 76.8 °F 65.7 °F 68% 29.82 in 10.0 mi SSW 16.1 mph 29.9 mph N/A   Clear
10:50 AM 77.0 °F 66.2 °F 69% 29.82 in 10.0 mi SW 20.7 mph 31.1 mph N/A   Mostly Cloudy
10:52 AM 77.0 °F 66.2 °F 69% 29.82 in 10.0 mi SW 16.1 mph 31.1 mph N/A   Mostly Cloudy
10:55 AM 77.2 °F 66.7 °F 70% 29.82 in 10.0 mi SW 13.8 mph 25.3 mph 0.02 in   Mostly Cloudy
11:05 AM 77.0 °F 66.2 °F 69% 29.82 in 10.0 mi SW 20.7 mph 25.3 mph N/A   Mostly Cloudy
11:19 AM 78.8 °F 66.2 °F 65% 29.81 in 10.0 mi SW 18.4 mph 29.9 mph N/A   Scattered Clouds
11:55 AM 79.3 °F 66.7 °F 65% 29.79 in 10.0 mi SW 16.1 mph 25.3 mph 0.08 in   Partly Cloudy
12:12 PM 77.0 °F 64.4 °F 65% 29.82 in 10.0 mi NW 32.2 mph 39.1 mph N/A   Scattered Clouds
12:16 PM 69.8 °F 59.0 °F 68% 29.82 in 10.0 mi NW 25.3 mph 39.1 mph N/A Rain Light Rain
12:20 PM 66.2 °F 55.4 °F 68% 29.83 in 10.0 mi NW 21.9 mph 39.1 mph N/A Rain Light Rain
12:25 PM 64.4 °F 53.6 °F 68% 29.84 in 10.0 mi NNW 18.4 mph 34.5 mph N/A   Scattered Clouds
12:55 PM 61.3 °F 51.8 °F 71% 29.86 in 10.0 mi NW 16.1 mph 29.9 mph 0.15 in   Scattered Clouds
1:55 PM 60.8 °F 39.6 °F 46% 29.91 in 10.0 mi NW 16.1 mph 26.5 mph 0.03 in   Mostly Cloudy
2:55 PM 60.3 °F 45.9 °F 59% 29.94 in 10.0 mi NW 11.5 mph - N/A   Overcast
3:47 PM 59.0 °F 35.6 °F 42% 29.97 in 10.0 mi WNW 19.6 mph 26.5 mph N/A Rain Light Rain
3:55 PM 59.0 °F 36.3 °F 43% 29.98 in 10.0 mi NW 13.8 mph 24.2 mph 0.00 in Rain Light Rain
3:56 PM 59.0 °F 35.6 °F 42% 29.98 in 10.0 mi NW 17.3 mph 24.2 mph N/A   Overcast
4:03 PM 59.0 °F 37.4 °F 45% 29.99 in 10.0 mi NNW 15.0 mph 24.2 mph N/A Rain Light Rain
4:25 PM 57.2 °F 37.4 °F 48% 29.99 in 10.0 mi WNW 8.1 mph - N/A   Overcast
4:55 PM 56.5 °F 34.0 °F 43% 30.00 in 10.0 mi NW 17.3 mph 23.0 mph 0.00 in   Overcast
5:55 PM 55.4 °F 33.6 °F 44% 30.02 in 10.0 mi NW 8.1 mph 19.6 mph N/A   Overcast
6:55 PM 54.9 °F 34.5 °F 46% 30.06 in 10.0 mi WNW 6.9 mph - N/A   Overcast
7:55 PM 53.4 °F 34.7 °F 49% 30.07 in 10.0 mi WNW 6.9 mph - N/A   Mostly Cloudy
8:55 PM 53.1 °F 34.0 °F 48% 30.08 in 10.0 mi NW 5.8 mph - N/A   Overcast
9:55 PM 52.9 °F 32.0 °F 45% 30.13 in 10.0 mi NW 6.9 mph - N/A   Overcast
10:33 PM 53.6 °F 30.2 °F 41% 30.13 in 10.0 mi NNW 10.4 mph - N/A Rain Light Rain
10:55 PM 52.2 °F 30.7 °F 44% 30.14 in 10.0 mi NW 11.5 mph - 0.00 in Rain Light Rain
11:55 PM 50.2 °F 30.2 °F 46% 30.14 in 10.0 mi NNW 16.1 mph 28.8 mph 0.00 in Rain Light Rain